New River MCAS, NC

4:02 AM EDT on March 25, 2017 (GMT -0400)
New River Marine Corps Air Station

Weather History for KNCA - February, 2013

Change the Weather History Date:

Thursday, February 14, 2013

  Actual Average Record
Temperature  
Mean Temperature 46 °F -  
Max Temperature 53 °F 56 °F 71 °F (2011)
Min Temperature 39 °F 35 °F 19 °F (2015)
Degree Days  
Heating Degree Days 19    
Moisture  
Dew Point 36 °F    
Average Humidity 68    
Maximum Humidity 89    
Minimum Humidity 49    
Precipitation  
Precipitation 0.00 in - - ()
Sea Level Pressure  
Sea Level Pressure 30.02 in    
Wind  
Wind Speed 7 mph (NNW)    
Max Wind Speed 13 mph    
Max Gust Speed 17 mph    
Visibility 10 miles    
Events      
Averages and records for this station are not official NWS values.
T = Trace of Precipitation, MM = Missing Value Source: NWS Daily Summary

Daily Weather History Graph

Daily Weather History Graph

Search for Another Location

Airport or City:

Trip Planner

Search our weather history database for the weather conditions in past years. The results will help you decide how hot, cold, wet, or windy it might be!

Date:

Astronomy

Feb. 14, 2013 Rise Set
Actual Time 6:56 AM EST 5:52 PM EST
Civil Twilight 6:30 AM EST 6:18 PM EST
Nautical Twilight 6:00 AM EST 6:47 PM EST
Astronomical Twilight 5:31 AM EST 7:16 PM EST
Moon 9:10 AM EST (2/14) 10:37 PM EST (2/14)
Length of Visible Light 11h 47m
Length of Day
10h 56m
Waxing Crescent, 21% of the Moon is Illuminated
Feb 14
Waxing Crescent
Feb 17
First Quarter
Feb 25
Full
Mar 4
Last Quarter
Mar 11
New

Hourly Weather History & Observations

Time (EST) Temp. Windchill Dew Point Humidity Pressure Visibility Wind Dir Wind Speed Gust Speed Precip Events Conditions
12:29 AM 51.8 °F - 44.6 °F 76% 29.83 in 10.0 mi West 10.4 mph - N/A   Scattered Clouds
12:56 AM 50.0 °F - 44.1 °F 80% 29.84 in 10.0 mi WNW 12.7 mph 17.3 mph N/A   Clear
3:56 AM 44.1 °F 39.5 °F 34.0 °F 68% 29.92 in 10.0 mi NW 8.1 mph - N/A   Clear
4:56 AM 43.0 °F 38.8 °F 33.1 °F 68% 29.96 in 10.0 mi NW 6.9 mph - N/A   Clear
5:56 AM 42.1 °F 38.4 °F 33.1 °F 70% 29.98 in 10.0 mi NNW 5.8 mph - N/A   Clear
6:56 AM 41.0 °F 35.8 °F 33.1 °F 73% 29.99 in 10.0 mi NNW 8.1 mph - N/A   Mostly Cloudy
7:56 AM 43.0 °F 39.5 °F 34.0 °F 71% 30.02 in 10.0 mi Variable 5.8 mph - N/A   Mostly Cloudy
8:56 AM 44.1 °F 40.8 °F 34.0 °F 68% 30.06 in 10.0 mi North 5.8 mph - N/A   Mostly Cloudy
9:56 AM 46.9 °F - 34.0 °F 61% 30.06 in 10.0 mi NNE 10.4 mph - N/A   Mostly Cloudy
10:56 AM 48.9 °F - 34.0 °F 56% 30.06 in 10.0 mi NNE 9.2 mph - N/A   Mostly Cloudy
11:56 AM 48.9 °F - 33.1 °F 54% 30.07 in 10.0 mi NNE 6.9 mph - N/A   Overcast
12:56 PM 50.0 °F - 34.0 °F 54% 30.05 in 10.0 mi North 5.8 mph - N/A   Overcast
1:56 PM 51.1 °F - 34.0 °F 52% 30.04 in 10.0 mi Variable 4.6 mph - N/A   Overcast
2:56 PM 52.0 °F - 33.1 °F 49% 30.03 in 10.0 mi Calm Calm - N/A   Mostly Cloudy
3:56 PM 53.1 °F - 35.1 °F 50% 30.02 in 10.0 mi East 4.6 mph - N/A   Scattered Clouds
4:56 PM 51.1 °F - 34.0 °F 52% 30.04 in 10.0 mi Calm Calm - N/A   Clear
5:56 PM 48.0 °F - 37.0 °F 66% 30.05 in 10.0 mi South 5.8 mph - N/A   Clear
6:56 PM 46.0 °F 43.9 °F 37.9 °F 73% 30.08 in 10.0 mi South 4.6 mph - N/A   Scattered Clouds
7:56 PM 44.1 °F - 37.9 °F 79% 30.07 in 10.0 mi Calm Calm - N/A   Clear
8:56 PM 41.0 °F - 37.9 °F 89% 30.10 in 9.0 mi Calm Calm - N/A   Clear
9:56 PM 39.9 °F - 37.0 °F 89% 30.10 in 9.0 mi Calm Calm - N/A   Clear
10:56 PM 41.0 °F - 37.0 °F 86% 30.08 in 10.0 mi Calm Calm - N/A   Clear
11:56 PM 39.0 °F 36.8 °F 36.0 °F 89% 30.09 in 7.0 mi WSW 3.5 mph - N/A   Clear